owner,sensor,date,latitude,longitude,vertical_datum,wind_speed,wind_to_direction,wind_speed_of_gust,qcFlag 
DISL,ioos:station:DISL:CATA:1,2019-09-01T00:40:00Z,30.3085,-88.1395,0.0,3.99,74.98,-9999.0,'11111222,11111222,99999222' 
DISL,ioos:station:DISL:CATA:1,2019-09-01T01:40:00Z,30.3085,-88.1395,0.0,4.11,63.93,-9999.0,'11111222,11111222,99999222' 
DISL,ioos:station:DISL:CATA:1,2019-09-01T02:40:00Z,30.3085,-88.1395,0.0,4.25,63.62,-9999.0,'11111222,11111222,99999222' 
DISL,ioos:station:DISL:CATA:1,2019-09-01T03:40:00Z,30.3085,-88.1395,0.0,3.85,51.7,-9999.0,'11111222,11111222,99999222' 
DISL,ioos:station:DISL:CATA:1,2019-09-01T04:40:00Z,30.3085,-88.1395,0.0,3.82,39.09,-9999.0,'11111222,11111222,99999222' 
DISL,ioos:station:DISL:CATA:1,2019-09-01T05:40:00Z,30.3085,-88.1395,0.0,5.14,40.66,-9999.0,'11111222,11111222,99999222' 
DISL,ioos:station:DISL:CATA:1,2019-09-01T06:40:00Z,30.3085,-88.1395,0.0,5.3,49.94,-9999.0,'11111222,11111222,99999222' 
DISL,ioos:station:DISL:CATA:1,2019-09-01T07:40:00Z,30.3085,-88.1395,0.0,3.44,77.1,-9999.0,'11111222,11111222,99999222' 
DISL,ioos:station:DISL:CATA:1,2019-09-01T08:40:00Z,30.3085,-88.1395,0.0,4.46,65.76,-9999.0,'11111222,11111222,99999222' 
DISL,ioos:station:DISL:CATA:1,2019-09-01T09:40:00Z,30.3085,-88.1395,0.0,4.69,36.89,-9999.0,'11111222,11111222,99999222' 
DISL,ioos:station:DISL:CATA:1,2019-09-01T10:40:00Z,30.3085,-88.1395,0.0,5.51,46.07,-9999.0,'11111222,11111222,99999222' 
DISL,ioos:station:DISL:CATA:1,2019-09-01T11:40:00Z,30.3085,-88.1395,0.0,5.03,44.63,-9999.0,'11111222,11111222,99999222' 
DISL,ioos:station:DISL:CATA:1,2019-09-01T12:40:00Z,30.3085,-88.1395,0.0,6.15,44.58,-9999.0,'11111222,11111222,99999222' 
DISL,ioos:station:DISL:CATA:1,2019-09-01T13:40:00Z,30.3085,-88.1395,0.0,5.79,32.47,-9999.0,'11111222,11111222,99999222' 
DISL,ioos:station:DISL:CATA:1,2019-09-01T14:40:00Z,30.3085,-88.1395,0.0,4.86,41.23,-9999.0,'11111222,11111222,99999222' 
DISL,ioos:station:DISL:CATA:1,2019-09-01T15:40:00Z,30.3085,-88.1395,0.0,4.66,39.9,-9999.0,'11111222,11111222,99999222' 
DISL,ioos:station:DISL:CATA:1,2019-09-01T16:40:00Z,30.3085,-88.1395,0.0,3.57,41.95,-9999.0,'11111222,11111222,99999222' 
DISL,ioos:station:DISL:CATA:1,2019-09-01T17:40:00Z,30.3085,-88.1395,0.0,1.99,58.66,-9999.0,'11111222,11111222,99999222' 
DISL,ioos:station:DISL:CATA:1,2019-09-01T18:40:00Z,30.3085,-88.1395,0.0,2.36,61.39,-9999.0,'11111222,11111222,99999222' 
DISL,ioos:station:DISL:CATA:1,2019-09-01T19:40:00Z,30.3085,-88.1395,0.0,2.07,57.09,-9999.0,'11111222,11111222,99999222' 
DISL,ioos:station:DISL:CATA:1,2019-09-01T20:40:00Z,30.3085,-88.1395,0.0,1.5,81.9,-9999.0,'11111222,11111222,99999222' 
DISL,ioos:station:DISL:CATA:1,2019-09-01T21:40:00Z,30.3085,-88.1395,0.0,2.33,350.3,-9999.0,'11111222,11111222,99999222' 
DISL,ioos:station:DISL:CATA:1,2019-09-01T22:40:00Z,30.3085,-88.1395,0.0,4.46,357.2,-9999.0,'11111222,11111222,99999222' 
DISL,ioos:station:DISL:CATA:1,2019-09-01T23:40:00Z,30.3085,-88.1395,0.0,6.07,37.57,-9999.0,'11111222,11111222,99999222' 
DISL,ioos:station:DISL:CATA:1,2019-09-02T00:40:00Z,30.3085,-88.1395,0.0,3.09,33.24,-9999.0,'11111222,11111222,99999222' 
DISL,ioos:station:DISL:CATA:1,2019-09-02T01:40:00Z,30.3085,-88.1395,0.0,3.18,45.64,-9999.0,'11111222,11111222,99999222' 
DISL,ioos:station:DISL:CATA:1,2019-09-02T02:40:00Z,30.3085,-88.1395,0.0,3.36,358.3,-9999.0,'11111222,11111222,99999222' 
DISL,ioos:station:DISL:CATA:1,2019-09-02T03:40:00Z,30.3085,-88.1395,0.0,6.07,39.47,-9999.0,'11111222,11111222,99999222' 
DISL,ioos:station:DISL:CATA:1,2019-09-02T04:40:00Z,30.3085,-88.1395,0.0,5.83,44.41,-9999.0,'11111222,11111222,99999222' 
DISL,ioos:station:DISL:CATA:1,2019-09-02T05:40:00Z,30.3085,-88.1395,0.0,5.54,36.04,-9999.0,'11111222,11111222,99999222' 
DISL,ioos:station:DISL:CATA:1,2019-09-02T06:40:00Z,30.3085,-88.1395,0.0,6.3,42.75,-9999.0,'11111222,11111222,99999222' 
DISL,ioos:station:DISL:CATA:1,2019-09-02T07:40:00Z,30.3085,-88.1395,0.0,6.39,48.43,-9999.0,'11111222,11111222,99999222' 
DISL,ioos:station:DISL:CATA:1,2019-09-02T08:40:00Z,30.3085,-88.1395,0.0,5.58,58.35,-9999.0,'11111222,11111222,99999222' 
DISL,ioos:station:DISL:CATA:1,2019-09-02T09:40:00Z,30.3085,-88.1395,0.0,5.18,53.87,-9999.0,'11111222,11111222,99999222' 
DISL,ioos:station:DISL:CATA:1,2019-09-02T10:40:00Z,30.3085,-88.1395,0.0,5.58,34.81,-9999.0,'11111222,11111222,99999222' 
DISL,ioos:station:DISL:CATA:1,2019-09-02T11:40:00Z,30.3085,-88.1395,0.0,6.14,30.68,-9999.0,'11111222,11111222,99999222' 
DISL,ioos:station:DISL:CATA:1,2019-09-02T12:40:00Z,30.3085,-88.1395,0.0,4.97,39.21,-9999.0,'11111222,11111222,99999222' 
DISL,ioos:station:DISL:CATA:1,2019-09-02T15:40:00Z,30.3085,-88.1395,0.0,4.58,31.27,-9999.0,'11111222,11111222,99999222' 
DISL,ioos:station:DISL:CATA:1,2019-09-02T16:40:00Z,30.3085,-88.1395,0.0,4.18,29.83,-9999.0,'11111222,11111222,99999222' 
DISL,ioos:station:DISL:CATA:1,2019-09-02T17:40:00Z,30.3085,-88.1395,0.0,3.97,17.59,-9999.0,'11111222,11111222,99999222' 
DISL,ioos:station:DISL:CATA:1,2019-09-02T18:40:00Z,30.3085,-88.1395,0.0,5.15,21.48,-9999.0,'11111222,11111222,99999222' 
DISL,ioos:station:DISL:CATA:1,2019-09-02T19:40:00Z,30.3085,-88.1395,0.0,4.61,17.87,-9999.0,'11111222,11111222,99999222' 
DISL,ioos:station:DISL:CATA:1,2019-09-02T20:40:00Z,30.3085,-88.1395,0.0,4.64,19.89,-9999.0,'11111222,11111222,99999222' 
DISL,ioos:station:DISL:CATA:1,2019-09-02T21:40:00Z,30.3085,-88.1395,0.0,4.78,18.62,-9999.0,'11111222,11111222,99999222' 
DISL,ioos:station:DISL:CATA:1,2019-09-02T22:40:00Z,30.3085,-88.1395,0.0,2.67,50.86,-9999.0,'11111222,11111222,99999222' 
DISL,ioos:station:DISL:CATA:1,2019-09-02T23:40:00Z,30.3085,-88.1395,0.0,5.99,10.17,-9999.0,'11111222,11111222,99999222' 
DISL,ioos:station:DISL:CATA:1,2019-09-03T00:40:00Z,30.3085,-88.1395,0.0,6.98,26.9,-9999.0,'11111222,11111222,99999222' 
DISL,ioos:station:DISL:CATA:1,2019-09-03T01:40:00Z,30.3085,-88.1395,0.0,6.03,28.31,-9999.0,'11111222,11111222,99999222' 
DISL,ioos:station:DISL:CATA:1,2019-09-03T02:40:00Z,30.3085,-88.1395,0.0,6.81,26.74,-9999.0,'11111222,11111222,99999222' 
DISL,ioos:station:DISL:CATA:1,2019-09-03T03:40:00Z,30.3085,-88.1395,0.0,5.47,30.19,-9999.0,'11111222,11111222,99999222' 
DISL,ioos:station:DISL:CATA:1,2019-09-03T04:40:00Z,30.3085,-88.1395,0.0,6.11,27.84,-9999.0,'11111222,11111222,99999222' 
DISL,ioos:station:DISL:CATA:1,2019-09-03T05:40:00Z,30.3085,-88.1395,0.0,5.26,34.54,-9999.0,'11111222,11111222,99999222' 
DISL,ioos:station:DISL:CATA:1,2019-09-03T06:40:00Z,30.3085,-88.1395,0.0,4.65,47.09,-9999.0,'11111222,11111222,99999222' 
DISL,ioos:station:DISL:CATA:1,2019-09-03T07:40:00Z,30.3085,-88.1395,0.0,5.79,53.56,-9999.0,'11111222,11111222,99999222' 
DISL,ioos:station:DISL:CATA:1,2019-09-03T08:40:00Z,30.3085,-88.1395,0.0,4.47,49.91,-9999.0,'11111222,11111222,99999222' 
DISL,ioos:station:DISL:CATA:1,2019-09-03T09:40:00Z,30.3085,-88.1395,0.0,5.68,33.93,-9999.0,'11111222,11111222,99999222' 
DISL,ioos:station:DISL:CATA:1,2019-09-03T10:40:00Z,30.3085,-88.1395,0.0,5.0,44.39,-9999.0,'11111222,11111222,99999222' 
DISL,ioos:station:DISL:CATA:1,2019-09-03T11:40:00Z,30.3085,-88.1395,0.0,4.66,46.82,-9999.0,'11111222,11111222,99999222' 
DISL,ioos:station:DISL:CATA:1,2019-09-03T12:40:00Z,30.3085,-88.1395,0.0,5.23,19.73,-9999.0,'11111222,11111222,99999222' 
DISL,ioos:station:DISL:CATA:1,2019-09-03T13:40:00Z,30.3085,-88.1395,0.0,4.36,20.31,-9999.0,'11111222,11111222,99999222' 
DISL,ioos:station:DISL:CATA:1,2019-09-03T14:40:00Z,30.3085,-88.1395,0.0,4.09,41.31,-9999.0,'11111222,11111222,99999222' 
DISL,ioos:station:DISL:CATA:1,2019-09-03T15:40:00Z,30.3085,-88.1395,0.0,3.68,24.39,-9999.0,'11111222,11111222,99999222' 
DISL,ioos:station:DISL:CATA:1,2019-09-03T16:40:00Z,30.3085,-88.1395,0.0,3.75,23.37,-9999.0,'11111222,11111222,99999222' 
DISL,ioos:station:DISL:CATA:1,2019-09-03T17:40:00Z,30.3085,-88.1395,0.0,3.21,19.94,-9999.0,'11111222,11111222,99999222' 
DISL,ioos:station:DISL:CATA:1,2019-09-03T18:40:00Z,30.3085,-88.1395,0.0,3.75,21.72,-9999.0,'11111222,11111222,99999222' 
DISL,ioos:station:DISL:CATA:1,2019-09-03T19:40:00Z,30.3085,-88.1395,0.0,4.03,23.76,-9999.0,'11111222,11111222,99999222' 
DISL,ioos:station:DISL:CATA:1,2019-09-03T20:40:00Z,30.3085,-88.1395,0.0,4.33,15.27,-9999.0,'11111222,11111222,99999222' 
DISL,ioos:station:DISL:CATA:1,2019-09-03T21:40:00Z,30.3085,-88.1395,0.0,4.86,24.07,-9999.0,'11111222,11111222,99999222' 
DISL,ioos:station:DISL:CATA:1,2019-09-03T22:40:00Z,30.3085,-88.1395,0.0,4.16,13.01,-9999.0,'11111222,11111222,99999222' 
DISL,ioos:station:DISL:CATA:1,2019-09-03T23:40:00Z,30.3085,-88.1395,0.0,3.29,0.224,-9999.0,'11111222,11111222,99999222' 
DISL,ioos:station:DISL:CATA:1,2019-09-04T00:40:00Z,30.3085,-88.1395,0.0,1.52,102.8,-9999.0,'11111222,11111222,99999222' 
DISL,ioos:station:DISL:CATA:1,2019-09-04T01:40:00Z,30.3085,-88.1395,0.0,0.32,180.9,-9999.0,'11111222,11111222,99999222' 
DISL,ioos:station:DISL:CATA:1,2019-09-04T02:40:00Z,30.3085,-88.1395,0.0,2.49,351.0,-9999.0,'11111222,11111222,99999222' 
DISL,ioos:station:DISL:CATA:1,2019-09-04T03:40:00Z,30.3085,-88.1395,0.0,2.62,351.4,-9999.0,'11111222,11111222,99999222' 
DISL,ioos:station:DISL:CATA:1,2019-09-04T04:40:00Z,30.3085,-88.1395,0.0,2.08,356.9,-9999.0,'11111222,11111222,99999222' 
DISL,ioos:station:DISL:CATA:1,2019-09-04T05:40:00Z,30.3085,-88.1395,0.0,2.03,346.0,-9999.0,'11111222,11111222,99999222' 
DISL,ioos:station:DISL:CATA:1,2019-09-04T06:40:00Z,30.3085,-88.1395,0.0,3.19,355.1,-9999.0,'11111222,11111222,99999222' 
DISL,ioos:station:DISL:CATA:1,2019-09-04T07:40:00Z,30.3085,-88.1395,0.0,3.32,349.9,-9999.0,'11111222,11111222,99999222' 
DISL,ioos:station:DISL:CATA:1,2019-09-04T08:40:00Z,30.3085,-88.1395,0.0,3.24,349.0,-9999.0,'11111222,11111222,99999222' 
DISL,ioos:station:DISL:CATA:1,2019-09-04T09:40:00Z,30.3085,-88.1395,0.0,2.1,355.9,-9999.0,'11111222,11111222,99999222' 
DISL,ioos:station:DISL:CATA:1,2019-09-04T10:40:00Z,30.3085,-88.1395,0.0,3.45,358.3,-9999.0,'11111222,11111222,99999222' 
DISL,ioos:station:DISL:CATA:1,2019-09-04T11:40:00Z,30.3085,-88.1395,0.0,2.56,359.2,-9999.0,'11111222,11144222,99999222' 
DISL,ioos:station:DISL:CATA:1,2019-09-04T12:40:00Z,30.3085,-88.1395,0.0,2.81,1.144,-9999.0,'11111222,11111222,99999222' 
DISL,ioos:station:DISL:CATA:1,2019-09-04T13:40:00Z,30.3085,-88.1395,0.0,2.94,13.34,-9999.0,'11111222,11111222,99999222' 
DISL,ioos:station:DISL:CATA:1,2019-09-04T14:40:00Z,30.3085,-88.1395,0.0,4.69,22.78,-9999.0,'11111222,11111222,99999222' 
DISL,ioos:station:DISL:CATA:1,2019-09-04T15:40:00Z,30.3085,-88.1395,0.0,3.49,33.48,-9999.0,'11111222,11111222,99999222' 
DISL,ioos:station:DISL:CATA:1,2019-09-04T16:40:00Z,30.3085,-88.1395,0.0,3.17,34.61,-9999.0,'11111222,11111222,99999222' 
DISL,ioos:station:DISL:CATA:1,2019-09-04T17:40:00Z,30.3085,-88.1395,0.0,3.4,41.09,-9999.0,'11111222,11111222,99999222' 
DISL,ioos:station:DISL:CATA:1,2019-09-04T18:40:00Z,30.3085,-88.1395,0.0,3.53,43.05,-9999.0,'11111222,11111222,99999222' 
DISL,ioos:station:DISL:CATA:1,2019-09-04T19:40:00Z,30.3085,-88.1395,0.0,1.43,3.309,-9999.0,'11111222,11111222,99999222' 
DISL,ioos:station:DISL:CATA:1,2019-09-04T20:40:00Z,30.3085,-88.1395,0.0,4.85,234.6,-9999.0,'11111222,11111222,99999222' 
DISL,ioos:station:DISL:CATA:1,2019-09-04T21:40:00Z,30.3085,-88.1395,0.0,4.6,221.4,-9999.0,'11111222,11111222,99999222' 
DISL,ioos:station:DISL:CATA:1,2019-09-04T22:40:00Z,30.3085,-88.1395,0.0,4.83,229.3,-9999.0,'11111222,11111222,99999222' 
DISL,ioos:station:DISL:CATA:1,2019-09-04T23:40:00Z,30.3085,-88.1395,0.0,4.54,240.2,-9999.0,'11111222,11111222,99999222' 
DISL,ioos:station:DISL:CATA:1,2019-09-05T00:40:00Z,30.3085,-88.1395,0.0,3.96,255.8,-9999.0,'11111222,11111222,99999222' 
DISL,ioos:station:DISL:CATA:1,2019-09-05T01:40:00Z,30.3085,-88.1395,0.0,4.04,242.4,-9999.0,'11111222,11111222,99999222' 
DISL,ioos:station:DISL:CATA:1,2019-09-05T02:40:00Z,30.3085,-88.1395,0.0,3.82,247.0,-9999.0,'11111222,11111222,99999222' 
DISL,ioos:station:DISL:CATA:1,2019-09-05T03:40:00Z,30.3085,-88.1395,0.0,3.63,302.1,-9999.0,'11111222,11111222,99999222' 
DISL,ioos:station:DISL:CATA:1,2019-09-05T04:40:00Z,30.3085,-88.1395,0.0,3.84,328.4,-9999.0,'11111222,11111222,99999222' 
DISL,ioos:station:DISL:CATA:1,2019-09-05T05:40:00Z,30.3085,-88.1395,0.0,3.72,335.0,-9999.0,'11111222,11111222,99999222' 
DISL,ioos:station:DISL:CATA:1,2019-09-05T06:40:00Z,30.3085,-88.1395,0.0,4.59,334.4,-9999.0,'11111222,11111222,99999222' 
DISL,ioos:station:DISL:CATA:1,2019-09-05T07:40:00Z,30.3085,-88.1395,0.0,4.29,340.3,-9999.0,'11111222,11111222,99999222' 
DISL,ioos:station:DISL:CATA:1,2019-09-05T08:40:00Z,30.3085,-88.1395,0.0,3.96,339.2,-9999.0,'11111222,11111222,99999222' 
DISL,ioos:station:DISL:CATA:1,2019-09-05T09:40:00Z,30.3085,-88.1395,0.0,3.86,348.5,-9999.0,'11111222,11111222,99999222' 
DISL,ioos:station:DISL:CATA:1,2019-09-05T10:40:00Z,30.3085,-88.1395,0.0,2.63,359.3,-9999.0,'11111222,11144222,99999222' 
DISL,ioos:station:DISL:CATA:1,2019-09-05T11:40:00Z,30.3085,-88.1395,0.0,3.37,338.2,-9999.0,'11111222,11111222,99999222' 
DISL,ioos:station:DISL:CATA:1,2019-09-05T12:40:00Z,30.3085,-88.1395,0.0,4.34,338.9,-9999.0,'11111222,11111222,99999222' 
DISL,ioos:station:DISL:CATA:1,2019-09-05T13:40:00Z,30.3085,-88.1395,0.0,4.35,339.5,-9999.0,'11111222,11111222,99999222' 
DISL,ioos:station:DISL:CATA:1,2019-09-05T14:40:00Z,30.3085,-88.1395,0.0,2.34,347.0,-9999.0,'11111222,11111222,99999222' 
DISL,ioos:station:DISL:CATA:1,2019-09-05T15:40:00Z,30.3085,-88.1395,0.0,2.89,244.6,-9999.0,'11111222,11111222,99999222' 
DISL,ioos:station:DISL:CATA:1,2019-09-05T16:40:00Z,30.3085,-88.1395,0.0,3.55,246.2,-9999.0,'11111222,11111222,99999222' 
DISL,ioos:station:DISL:CATA:1,2019-09-05T17:40:00Z,30.3085,-88.1395,0.0,1.89,98.4,-9999.0,'11111222,11111222,99999222' 
DISL,ioos:station:DISL:CATA:1,2019-09-05T18:40:00Z,30.3085,-88.1395,0.0,6.96,237.2,-9999.0,'11111222,11111222,99999222' 
DISL,ioos:station:DISL:CATA:1,2019-09-05T19:40:00Z,30.3085,-88.1395,0.0,7.74,237.5,-9999.0,'11111222,11111222,99999222' 
DISL,ioos:station:DISL:CATA:1,2019-09-05T20:40:00Z,30.3085,-88.1395,0.0,7.8,236.1,-9999.0,'11111222,11111222,99999222' 
DISL,ioos:station:DISL:CATA:1,2019-09-05T21:40:00Z,30.3085,-88.1395,0.0,8.4,234.0,-9999.0,'11111222,11111222,99999222' 
DISL,ioos:station:DISL:CATA:1,2019-09-05T22:40:00Z,30.3085,-88.1395,0.0,9.1,246.3,-9999.0,'11111222,11111222,99999222' 
DISL,ioos:station:DISL:CATA:1,2019-09-05T23:40:00Z,30.3085,-88.1395,0.0,7.54,241.2,-9999.0,'11111222,11111222,99999222' 
DISL,ioos:station:DISL:CATA:1,2019-09-06T00:40:00Z,30.3085,-88.1395,0.0,3.98,294.3,-9999.0,'11111222,11111222,99999222' 
DISL,ioos:station:DISL:CATA:1,2019-09-06T01:40:00Z,30.3085,-88.1395,0.0,3.99,294.4,-9999.0,'11111222,11111222,99999222' 
DISL,ioos:station:DISL:CATA:1,2019-09-06T02:40:00Z,30.3085,-88.1395,0.0,4.31,289.0,-9999.0,'11111222,11111222,99999222' 
DISL,ioos:station:DISL:CATA:1,2019-09-06T03:40:00Z,30.3085,-88.1395,0.0,4.51,297.9,-9999.0,'11111222,11111222,99999222' 
DISL,ioos:station:DISL:CATA:1,2019-09-06T04:40:00Z,30.3085,-88.1395,0.0,4.66,301.5,-9999.0,'11111222,11111222,99999222' 
DISL,ioos:station:DISL:CATA:1,2019-09-06T08:10:00Z,30.3085,-88.1395,0.0,4.51,335.5,-9999.0,'11111222,11111222,99999222' 
DISL,ioos:station:DISL:CATA:1,2019-09-06T08:40:00Z,30.3085,-88.1395,0.0,3.83,346.2,-9999.0,'11111222,11111222,99999222' 
DISL,ioos:station:DISL:CATA:1,2019-09-06T09:40:00Z,30.3085,-88.1395,0.0,3.42,342.7,-9999.0,'11111222,11111222,99999222' 
DISL,ioos:station:DISL:CATA:1,2019-09-06T10:40:00Z,30.3085,-88.1395,0.0,3.59,336.5,-9999.0,'11111222,11111222,99999222' 
DISL,ioos:station:DISL:CATA:1,2019-09-06T11:40:00Z,30.3085,-88.1395,0.0,4.0,337.8,-9999.0,'11111222,11111222,99999222' 
DISL,ioos:station:DISL:CATA:1,2019-09-06T12:40:00Z,30.3085,-88.1395,0.0,4.16,340.7,-9999.0,'11111222,11111222,99999222' 
DISL,ioos:station:DISL:CATA:1,2019-09-06T13:40:00Z,30.3085,-88.1395,0.0,4.66,349.2,-9999.0,'11111222,11111222,99999222' 
DISL,ioos:station:DISL:CATA:1,2019-09-06T14:40:00Z,30.3085,-88.1395,0.0,2.61,334.4,-9999.0,'11111222,11111222,99999222' 
DISL,ioos:station:DISL:CATA:1,2019-09-06T15:40:00Z,30.3085,-88.1395,0.0,2.83,346.3,-9999.0,'11111222,11111222,99999222' 
DISL,ioos:station:DISL:CATA:1,2019-09-06T16:40:00Z,30.3085,-88.1395,0.0,2.66,18.19,-9999.0,'11111222,11111222,99999222' 
DISL,ioos:station:DISL:CATA:1,2019-09-06T17:40:00Z,30.3085,-88.1395,0.0,5.06,332.2,-9999.0,'11111222,11111222,99999222' 
DISL,ioos:station:DISL:CATA:1,2019-09-06T18:40:00Z,30.3085,-88.1395,0.0,1.58,50.51,-9999.0,'11111222,11111222,99999222' 
DISL,ioos:station:DISL:CATA:1,2019-09-06T19:40:00Z,30.3085,-88.1395,0.0,5.42,306.9,-9999.0,'11111222,11111222,99999222' 
DISL,ioos:station:DISL:CATA:1,2019-09-06T20:40:00Z,30.3085,-88.1395,0.0,5.22,346.3,-9999.0,'11111222,11111222,99999222' 
DISL,ioos:station:DISL:CATA:1,2019-09-06T21:40:00Z,30.3085,-88.1395,0.0,4.91,358.1,-9999.0,'11111222,11111222,99999222' 
DISL,ioos:station:DISL:CATA:1,2019-09-06T22:40:00Z,30.3085,-88.1395,0.0,3.29,20.68,-9999.0,'11111222,11111222,99999222' 
DISL,ioos:station:DISL:CATA:1,2019-09-06T23:40:00Z,30.3085,-88.1395,0.0,2.49,37.85,-9999.0,'11111222,11111222,99999222' 
DISL,ioos:station:DISL:CATA:1,2019-09-07T00:40:00Z,30.3085,-88.1395,0.0,1.58,336.1,-9999.0,'11111222,11111222,99999222' 
DISL,ioos:station:DISL:CATA:1,2019-09-07T01:40:00Z,30.3085,-88.1395,0.0,2.0,336.9,-9999.0,'11111222,11111222,99999222' 
DISL,ioos:station:DISL:CATA:1,2019-09-07T02:40:00Z,30.3085,-88.1395,0.0,2.75,336.5,-9999.0,'11111222,11111222,99999222' 
DISL,ioos:station:DISL:CATA:1,2019-09-07T03:40:00Z,30.3085,-88.1395,0.0,3.59,321.2,-9999.0,'11111222,11111222,99999222' 
DISL,ioos:station:DISL:CATA:1,2019-09-07T04:40:00Z,30.3085,-88.1395,0.0,2.76,312.8,-9999.0,'11111222,11111222,99999222' 
DISL,ioos:station:DISL:CATA:1,2019-09-07T05:40:00Z,30.3085,-88.1395,0.0,4.09,332.9,-9999.0,'11111222,11111222,99999222' 
DISL,ioos:station:DISL:CATA:1,2019-09-07T06:40:00Z,30.3085,-88.1395,0.0,3.15,351.2,-9999.0,'11111222,11111222,99999222' 
DISL,ioos:station:DISL:CATA:1,2019-09-07T07:40:00Z,30.3085,-88.1395,0.0,2.62,343.6,-9999.0,'11111222,11111222,99999222' 
DISL,ioos:station:DISL:CATA:1,2019-09-07T08:40:00Z,30.3085,-88.1395,0.0,2.24,345.8,-9999.0,'11111222,11111222,99999222' 
DISL,ioos:station:DISL:CATA:1,2019-09-07T09:40:00Z,30.3085,-88.1395,0.0,3.23,335.3,-9999.0,'11111222,11111222,99999222' 
DISL,ioos:station:DISL:CATA:1,2019-09-07T10:40:00Z,30.3085,-88.1395,0.0,2.87,340.4,-9999.0,'11111222,11111222,99999222' 
DISL,ioos:station:DISL:CATA:1,2019-09-07T11:40:00Z,30.3085,-88.1395,0.0,3.12,336.7,-9999.0,'11111222,11111222,99999222' 
DISL,ioos:station:DISL:CATA:1,2019-09-07T12:40:00Z,30.3085,-88.1395,0.0,2.14,352.8,-9999.0,'11111222,11111222,99999222' 
DISL,ioos:station:DISL:CATA:1,2019-09-07T13:40:00Z,30.3085,-88.1395,0.0,2.84,343.0,-9999.0,'11111222,11111222,99999222' 
DISL,ioos:station:DISL:CATA:1,2019-09-07T14:40:00Z,30.3085,-88.1395,0.0,2.74,7.18,-9999.0,'11111222,11111222,99999222' 
DISL,ioos:station:DISL:CATA:1,2019-09-07T15:40:00Z,30.3085,-88.1395,0.0,1.98,42.62,-9999.0,'11111222,11111222,99999222' 
DISL,ioos:station:DISL:CATA:1,2019-09-07T16:40:00Z,30.3085,-88.1395,0.0,1.98,102.8,-9999.0,'11111222,11111222,99999222' 
DISL,ioos:station:DISL:CATA:1,2019-09-07T17:40:00Z,30.3085,-88.1395,0.0,1.48,177.6,-9999.0,'11111222,11111222,99999222' 
DISL,ioos:station:DISL:CATA:1,2019-09-07T18:40:00Z,30.3085,-88.1395,0.0,2.98,175.3,-9999.0,'11111222,11111222,99999222' 
DISL,ioos:station:DISL:CATA:1,2019-09-07T19:40:00Z,30.3085,-88.1395,0.0,3.9,202.5,-9999.0,'11111222,11111222,99999222' 
DISL,ioos:station:DISL:CATA:1,2019-09-07T20:40:00Z,30.3085,-88.1395,0.0,4.62,210.4,-9999.0,'11111222,11111222,99999222' 
DISL,ioos:station:DISL:CATA:1,2019-09-07T21:40:00Z,30.3085,-88.1395,0.0,4.64,211.4,-9999.0,'11111222,11111222,99999222' 
DISL,ioos:station:DISL:CATA:1,2019-09-07T22:40:00Z,30.3085,-88.1395,0.0,4.8,206.2,-9999.0,'11111222,11111222,99999222' 
DISL,ioos:station:DISL:CATA:1,2019-09-07T23:40:00Z,30.3085,-88.1395,0.0,4.07,222.6,-9999.0,'11111222,11111222,99999222' 
DISL,ioos:station:DISL:CATA:1,2019-09-08T00:40:00Z,30.3085,-88.1395,0.0,4.82,222.7,-9999.0,'11111222,11111222,99999222' 
DISL,ioos:station:DISL:CATA:1,2019-09-08T01:40:00Z,30.3085,-88.1395,0.0,5.16,217.4,-9999.0,'11111222,11111222,99999222' 
DISL,ioos:station:DISL:CATA:1,2019-09-08T02:40:00Z,30.3085,-88.1395,0.0,4.15,236.9,-9999.0,'11111222,11111222,99999222' 
DISL,ioos:station:DISL:CATA:1,2019-09-08T03:40:00Z,30.3085,-88.1395,0.0,3.48,236.5,-9999.0,'11111222,11111222,99999222' 
DISL,ioos:station:DISL:CATA:1,2019-09-08T04:40:00Z,30.3085,-88.1395,0.0,4.11,229.9,-9999.0,'11111222,11111222,99999222' 
DISL,ioos:station:DISL:CATA:1,2019-09-08T05:40:00Z,30.3085,-88.1395,0.0,5.31,224.5,-9999.0,'11111222,11111222,99999222' 
DISL,ioos:station:DISL:CATA:1,2019-09-08T06:40:00Z,30.3085,-88.1395,0.0,5.46,220.8,-9999.0,'11111222,11111222,99999222' 
DISL,ioos:station:DISL:CATA:1,2019-09-08T07:40:00Z,30.3085,-88.1395,0.0,4.71,234.2,-9999.0,'11111222,11111222,99999222' 
DISL,ioos:station:DISL:CATA:1,2019-09-08T08:40:00Z,30.3085,-88.1395,0.0,4.4,242.6,-9999.0,'11111222,11111222,99999222' 
DISL,ioos:station:DISL:CATA:1,2019-09-08T09:40:00Z,30.3085,-88.1395,0.0,3.19,247.8,-9999.0,'11111222,11111222,99999222' 
DISL,ioos:station:DISL:CATA:1,2019-09-08T10:40:00Z,30.3085,-88.1395,0.0,2.12,301.0,-9999.0,'11111222,11111222,99999222' 
DISL,ioos:station:DISL:CATA:1,2019-09-08T11:40:00Z,30.3085,-88.1395,0.0,1.74,329.0,-9999.0,'11111222,11111222,99999222' 
DISL,ioos:station:DISL:CATA:1,2019-09-08T12:40:00Z,30.3085,-88.1395,0.0,1.89,328.8,-9999.0,'11111222,11111222,99999222' 
DISL,ioos:station:DISL:CATA:1,2019-09-08T13:40:00Z,30.3085,-88.1395,0.0,1.43,330.4,-9999.0,'11111222,11111222,99999222' 
DISL,ioos:station:DISL:CATA:1,2019-09-08T14:40:00Z,30.3085,-88.1395,0.0,2.09,48.02,-9999.0,'11111222,11111222,99999222' 
DISL,ioos:station:DISL:CATA:1,2019-09-08T15:40:00Z,30.3085,-88.1395,0.0,2.72,43.76,-9999.0,'11111222,11111222,99999222' 
DISL,ioos:station:DISL:CATA:1,2019-09-08T16:40:00Z,30.3085,-88.1395,0.0,2.81,50.88,-9999.0,'11111222,11111222,99999222' 
DISL,ioos:station:DISL:CATA:1,2019-09-08T17:40:00Z,30.3085,-88.1395,0.0,2.07,63.73,-9999.0,'11111222,11111222,99999222' 
DISL,ioos:station:DISL:CATA:1,2019-09-08T18:40:00Z,30.3085,-88.1395,0.0,1.58,100.4,-9999.0,'11111222,11111222,99999222' 
DISL,ioos:station:DISL:CATA:1,2019-09-08T19:40:00Z,30.3085,-88.1395,0.0,5.22,172.3,-9999.0,'11111222,11111222,99999222' 
DISL,ioos:station:DISL:CATA:1,2019-09-08T20:40:00Z,30.3085,-88.1395,0.0,5.69,170.1,-9999.0,'11111222,11111222,99999222' 
DISL,ioos:station:DISL:CATA:1,2019-09-08T21:40:00Z,30.3085,-88.1395,0.0,5.78,174.7,-9999.0,'11111222,11111222,99999222' 
DISL,ioos:station:DISL:CATA:1,2019-09-08T22:40:00Z,30.3085,-88.1395,0.0,5.2,184.4,-9999.0,'11111222,11111222,99999222' 
DISL,ioos:station:DISL:CATA:1,2019-09-08T23:40:00Z,30.3085,-88.1395,0.0,5.61,185.8,-9999.0,'11111222,11111222,99999222' 
DISL,ioos:station:DISL:CATA:1,2019-09-09T00:40:00Z,30.3085,-88.1395,0.0,5.43,187.6,-9999.0,'11111222,11111222,99999222' 
DISL,ioos:station:DISL:CATA:1,2019-09-09T01:40:00Z,30.3085,-88.1395,0.0,4.97,184.4,-9999.0,'11111222,11111222,99999222' 
DISL,ioos:station:DISL:CATA:1,2019-09-09T02:40:00Z,30.3085,-88.1395,0.0,4.62,187.9,-9999.0,'11111222,11111222,99999222' 
DISL,ioos:station:DISL:CATA:1,2019-09-09T03:40:00Z,30.3085,-88.1395,0.0,4.36,194.6,-9999.0,'11111222,11111222,99999222' 
DISL,ioos:station:DISL:CATA:1,2019-09-09T04:40:00Z,30.3085,-88.1395,0.0,3.85,200.3,-9999.0,'11111222,11111222,99999222' 
DISL,ioos:station:DISL:CATA:1,2019-09-09T05:40:00Z,30.3085,-88.1395,0.0,2.95,193.5,-9999.0,'11111222,11111222,99999222' 
DISL,ioos:station:DISL:CATA:1,2019-09-09T06:40:00Z,30.3085,-88.1395,0.0,3.84,181.5,-9999.0,'11111222,11111222,99999222' 
DISL,ioos:station:DISL:CATA:1,2019-09-09T07:40:00Z,30.3085,-88.1395,0.0,4.07,182.2,-9999.0,'11111222,11111222,99999222' 
DISL,ioos:station:DISL:CATA:1,2019-09-09T08:40:00Z,30.3085,-88.1395,0.0,4.98,180.2,-9999.0,'11111222,11111222,99999222' 